SCP
0 0 0 0 0 0 0 0 0 0 0 0 0 0 0 0 0 0 0 0 0 0 0 0 0 0 0 0 0 0 0 1 0 0 0 0 0 0 0 1 1 0 0
0 0 0 0 0 0 0 0 0 0 0 0 0 0 0 0 0 0 0 0 -0 0 0 0 0 0 0 0 1 1 0 1 0 0 0 0 0 0 0 0 0 0 0
0 0 0 0 0 0 0 0 0 0 0 0 0 0 0 0 0 -0 -0 -0 0 0 0 0 0 0 0 0 1 1 1 1 1 1 1 0 0 0 0 0 0 0 0
0 0 0 0 0 0 0 0 0 0 0 0 0 0 0 0 0 0 0 0 0 0 0 0 0 0 0 0 0 1 1 1 1 1 1 0 0 0 0 0 0 0 0
0 0 0 0 0 0 0 0 0 0 0 0 0 0 0 0 0 0 0 0 0 0 0 0 0 0 0 0 0 0 1 2 1 2 1 1 0 0 0 0 0 0 0
0 0 0 0 0 0 0 0 0 0 0 0 0 0 0 0 0 0 0 0 0 0 0 0 0 0 1 1 1 1 1 1 2 2 2 1 1 1 0 0 0 0 0
0 0 0 0 0 0 0 0 0 0 0 0 0 0 0 0 0 0 0 0 0 0 0 0 0 0 0 0 0 0 1 1 1 2 2 1 1 0 0 0 0 0 0
0 0 0 0 0 0 0 0 0 0 0 0 0 0 0 0 0 0 0 0 0 0 0 0 0 0 0 0 0 0 0 0 0 0 0 0 0 0 0 1 1 0 0
0 0 0 0 0 0 0 0 0 0 0 0 0 0 0 0 0 0 0 0 0 0 0 0 0 0 0 0 0 0 0 0 0 0 0 0 0 0 0 0 1 0 0
0 0 0 0 0 0 0 0 0 0 0 0 0 0 0 0 0 0 0 0 0 0 0 0 0 0 0 0 0 0 0 0 0 0 0 0 0 0 0 1 1 1 0
0 0 0 0 0 0 0 0 0 0 0 0 0 0 0 0 0 0 0 0 0 0 0 0 0 0 0 0 0 0 0 0 0 0 0 0 0 0 0 0 0 0 0
0 0 0 0 0 0 0 0 0 0 0 0 0 0 0 0 0 0 0 0 0 0 0 0 0 0 0 0 0 0 0 0 0 0 0 0 0 0 0 0 0 0 0
0 0 0 0 0 0 0 0 0 0 0 0 0 0 0 0 0 0 0 0 0 0 0 0 0 0 0 0 0 0 0 0 0 0 0 0 0 0 0 0 0 0 0
0 0 0 0 0 0 0 0 0 0 0 0 0 0 0 0 0 0 0 0 0 0 0 0 0 0 0 0 0 0 0 0 0 0 0 0 0 0 0 0 0 0 0
0 0 0 0 0 0 0 0 0 0 0 0 0 0 0 0 0 0 0 0 0 0 0 0 0 0 0 0 0 0 0 0 0 0 0 0 0 0 0 0 0 0 0
0 0 0 0 0 0 0 0 0 0 0 0 0 0 0 0 0 0 0 0 0 0 0 0 0 0 0 0 0 0 0 0 0 0 0 0 0 0 0 0 0 0 0
0 0 0 0 0 0 0 0 0 0 0 0 0 0 0 0 0 0 0 0 0 0 0 0 0 0 0 0 0 0 0 0 0 0 0 0 0 0 0 0 0 0 0
0 0 0 0 0 0 0 0 0 0 0 0 0 0 0 0 0 0 0 0 0 0 0 0 0 0 0 0 0 0 0 0 0 0 0 0 0 0 0 0 0 0 0
0 0 0 0 0 0 0 0 0 0 0 0 0 0 0 0 0 0 0 0 0 0 0 0 0 0 0 0 0 0 0 0 0 0 0 0 0 0 0 0 0 0 0
0 0 0 0 0 0 0 0 0 0 0 0 0 0 0 0 0 0 0 0 0 0 0 0 0 0 0 0 0 0 0 0 0 0 0 0 0 0 0 0 0 0 0
0 0 0 0 0 0 0 0 0 0 0 0 0 0 0 0 0 0 0 0 0 0 0 0 0 0 0 0 0 0 0 -0 0 0 0 0 0 0 0 0 0 0 0
0 0 0 0 0 0 0 0 0 0 0 0 0 0 0 0 0 0 0 0 0 0 0 0 0 0 0 0 0 0 0 0 0 0 0 0 0 0 0 0 0 0 0
0 0 0 0 0 0 0 0 0 0 0 0 0 0 0 0 0 0 0 0 0 0 0 0 0 0 0 0 0 0 0 0 0 0 0 0 0 0 0 0 0 0 0
0 0 0 0 0 0 0 0 0 0 0 0 0 0 0 0 0 0 0 0 0 0 0 0 0 0 0 0 0 0 0 0 -0 -0 0 0 0 -0 -0 -0 0 -0 0
0 0 0 0 0 0 0 0 0 0 0 0 0 0 0 0 0 0 0 0 0 0 0 0 0 0 0 0 0 0 -0 -0 -0 -0 0 0 0 -0 -0 0 0 0 0
0 0 0 0 0 0 0 0 0 0 0 0 0 0 0 0 0 0 0 0 0 0 0 0 0 0 0 0 0 0 -0 -0 -0 -0 0 -0 -0 -0 0 0 0 0 0
Wind_Speed_500mb
10 16 20 15 17 20 18 16 27 35 25 31 20 14 10 26 31 31 29 33 28 33 28 23 28 28 29 27 25 25 29 29 30 29 28 27 25 24 26 27 29 35 39
10 19 15 16 23 25 23 14 19 22 14 19 22 27 25 12 28 40 40 27 28 40 45 43 41 41 37 34 34 34 33 32 30 29 25 24 23 23 25 26 26 28 30
13 16 22 26 28 29 29 30 29 25 28 21 20 16 20 26 21 31 42 47 48 44 47 55 42 43 43 41 40 36 35 35 31 29 26 25 24 24 25 27 26 26 29
22 24 25 29 33 31 28 25 31 34 35 36 46 49 53 56 57 56 51 42 37 39 42 44 50 51 47 46 44 45 41 41 37 36 37 37 32 29 29 30 29 29 31
29 32 34 36 39 39 36 36 33 35 40 44 45 48 54 55 59 58 58 53 51 49 46 44 45 48 50 52 53 47 46 47 46 44 43 39 40 38 34 31 31 32 35
37 38 39 42 43 46 46 44 41 36 38 43 46 51 53 55 57 59 59 58 56 53 52 50 47 45 45 48 45 47 50 50 51 49 47 45 45 43 41 37 36 41 40
44 47 48 49 51 52 53 55 57 55 47 45 49 54 57 55 54 54 48 44 43 45 36 32 30 31 30 32 35 40 43 43 41 41 41 40 41 42 39 44 47 42 45
45 47 49 50 50 50 49 49 49 49 48 43 43 43 32 39 40 39 42 33 29 32 35 36 34 31 27 26 27 31 36 40 42 42 43 54 68 62 67 66 59 71 57
39 40 42 44 44 44 44 41 37 35 36 32 27 21 16 13 30 27 36 40 35 30 29 26 25 23 24 27 29 31 34 37 38 33 36 42 48 50 55 64 59 57 53
35 34 33 33 34 35 34 33 32 30 31 30 25 16 28 27 20 29 27 26 38 46 39 25 23 26 29 33 35 37 42 46 48 51 51 51 51 46 47 49 52 51 53
28 28 27 25 26 29 27 27 27 27 30 29 26 27 22 21 24 28 26 30 33 37 34 36 31 32 32 31 32 34 37 43 47 45 38 35 40 48 51 49 46 40 47
25 24 23 23 25 24 25 28 30 30 32 33 27 18 19 22 28 30 36 35 30 27 24 25 26 26 28 31 34 39 40 40 40 33 33 38 34 36 43 49 52 50 49
25 25 24 23 23 25 27 29 27 28 31 32 32 29 21 21 23 22 20 20 15 19 16 23 27 27 31 37 44 39 35 36 37 37 36 34 36 37 41 41 42 44 45
27 23 21 20 22 21 25 23 24 25 27 28 27 27 23 20 23 23 21 16 12 13 22 20 24 26 40 54 34 25 25 25 25 27 33 42 45 45 46 43 39 35 36
26 18 14 15 18 22 22 22 23 23 25 24 23 23 23 22 20 19 17 18 13 15 19 18 29 35 29 26 21 22 23 25 26 27 27 28 29 31 35 33 34 33 30
34 31 23 19 20 22 24 25 27 28 27 28 27 26 24 24 25 23 21 18 16 17 16 25 21 21 26 22 25 25 28 31 33 33 33 32 30 27 26 28 28 26 27
39 42 39 32 28 30 34 34 34 32 28 24 24 26 27 27 25 23 23 19 17 17 20 21 21 22 24 27 26 29 34 38 39 38 36 33 30 26 23 25 27 31 33
37 40 40 40 36 33 33 37 40 39 38 37 35 33 33 31 25 24 22 20 21 22 25 30 30 33 35 31 35 36 30 35 39 36 30 26 25 27 22 18 23 28 30
32 31 30 31 29 27 27 32 35 38 43 44 44 44 44 43 41 33 24 22 22 25 29 33 33 33 33 35 39 37 40 40 35 30 25 23 22 20 19 16 20 26 30
35 36 34 28 27 28 26 24 28 23 30 33 35 36 37 39 40 37 31 22 24 27 31 33 32 33 34 37 42 48 49 45 47 30 27 22 23 23 22 21 24 28 33
33 36 38 32 28 22 25 19 22 19 22 26 28 31 32 32 29 30 30 22 26 30 32 34 36 35 40 44 46 48 49 48 46 38 32 26 22 22 23 20 28 32 35
27 32 39 36 27 26 23 16 22 24 28 30 32 32 31 30 31 31 29 29 30 32 36 39 37 41 44 45 48 50 50 51 44 38 45 37 16 17 19 28 32 41 43
25 27 34 35 25 23 21 21 24 27 29 31 33 32 35 33 35 36 34 33 33 35 35 39 40 40 48 49 53 51 47 44 44 44 41 39 22 24 30 37 46 46 38
22 24 29 31 30 26 27 26 27 28 29 32 30 34 37 38 40 44 44 42 38 29 28 36 36 39 46 47 49 50 52 50 47 42 23 33 29 33 37 47 24 16 14
19 21 25 22 25 30 30 32 34 31 29 30 31 35 38 39 41 44 49 45 32 27 31 29 30 42 44 46 48 50 45 46 44 38 30 27 27 34 43 28 15 20 21
20 21 21 17 22 27 28 29 35 39 40 42 43 41 41 44 48 49 49 41 34 28 29 39 46 48 49 54 50 40 39 40 37 30 17 31 31 35 29 22 25 11 14
Wind_Direction_500mb
306 341 347 340 320 321 339 315 287 296 268 275 266 294 294 314 320 307 304 298 270 253 262 261 273 267 268 263 258 268 276 272 265 259 258 259 256 252 255 257 255 257 256
297 291 314 291 306 315 329 321 337 341 300 287 290 298 281 318 310 318 313 298 261 251 253 265 277 264 264 261 269 275 271 264 263 264 261 256 258 260 260 258 256 258 263
317 310 300 296 294 293 297 297 289 287 289 283 296 269 265 272 262 274 283 278 274 277 263 264 263 262 262 257 265 264 258 252 250 253 254 256 255 257 264 265 263 264 265
314 308 303 305 312 315 307 296 279 281 277 270 265 266 266 266 267 271 278 282 282 278 272 263 258 258 260 257 267 261 254 250 246 248 255 257 256 257 255 257 262 265 266
311 308 308 307 306 308 306 304 294 280 275 272 268 265 264 264 269 271 273 277 279 276 274 275 275 270 267 266 272 263 257 246 244 249 256 261 261 261 260 262 265 263 265
302 299 300 300 299 298 299 298 299 297 292 284 274 267 267 269 270 273 275 275 273 273 274 277 277 277 275 270 265 258 254 253 250 250 254 260 261 260 260 257 267 279 272
303 304 302 301 300 299 297 295 293 293 292 292 291 283 276 277 279 280 286 284 283 279 276 279 289 294 288 277 265 256 252 248 243 240 246 249 261 259 255 266 271 278 271
306 306 306 309 310 309 308 306 304 299 293 294 299 302 305 292 286 275 274 271 274 284 291 295 294 288 277 264 256 249 250 249 253 255 255 261 271 264 272 258 259 263 263
315 315 316 318 321 324 327 330 328 323 317 307 291 289 306 287 297 284 292 294 300 303 305 297 279 268 266 268 266 264 259 259 259 260 268 267 262 259 259 259 256 252 249
331 331 332 332 336 342 347 352 356 356 354 350 336 294 256 281 300 299 281 290 297 301 299 274 259 267 271 273 272 271 267 263 263 263 263 262 258 258 255 255 255 252 250
342 346 349 354 357 3 11 17 18 12 6 1 346 339 325 298 289 291 298 301 294 291 285 288 289 288 284 283 279 281 288 286 285 283 277 268 263 257 250 246 243 243 252
357 356 359 1 8 17 27 27 22 17 20 18 8 347 328 320 309 305 300 301 297 291 289 291 290 289 294 297 301 303 301 293 285 279 272 274 270 264 263 254 253 254 255
359 4 7 11 16 23 21 23 18 15 13 14 19 29 17 354 323 319 320 314 315 300 298 309 308 308 315 313 313 306 300 293 282 272 259 261 265 269 266 263 259 260 262
352 350 0 9 15 13 12 15 11 3 8 8 11 15 7 15 6 3 344 346 341 330 322 305 301 305 315 314 318 319 320 313 306 296 280 270 269 269 273 275 271 267 275
347 344 357 10 9 9 9 13 10 8 4 1 1 359 355 357 352 353 342 337 319 318 312 307 308 311 321 334 339 337 329 321 312 303 293 289 284 271 269 272 271 268 269
43 50 45 33 27 33 31 30 35 35 27 30 30 28 24 20 8 360 357 349 333 328 324 327 336 325 324 326 333 329 327 324 321 317 304 295 293 290 281 275 261 266 274
49 52 48 47 52 57 58 48 37 27 21 19 22 23 18 15 13 21 26 22 15 2 354 350 343 337 337 327 324 322 316 318 317 316 313 300 288 289 289 281 266 270 267
54 55 55 59 60 57 47 38 28 30 33 35 36 30 26 21 9 6 6 1 353 348 341 333 332 329 328 321 326 329 330 329 327 320 314 306 291 286 282 284 276 266 271
52 49 44 41 37 25 21 25 29 43 46 44 41 36 33 29 25 16 4 5 1 352 342 334 329 327 337 338 331 332 332 329 328 331 315 312 308 296 292 273 259 260 271
48 41 32 25 23 23 21 27 24 33 32 29 25 20 16 14 14 15 14 10 10 5 358 354 348 344 339 335 331 329 329 329 330 330 312 308 301 289 280 279 280 282 287
36 30 24 21 23 20 23 23 13 17 12 9 4 3 358 357 353 352 356 355 345 346 350 353 353 349 346 340 338 336 331 328 327 333 325 337 300 289 268 271 278 286 294
19 22 21 18 24 25 25 21 2 355 355 355 356 358 350 346 347 345 330 322 320 323 328 327 333 336 336 333 332 332 329 330 328 330 327 328 317 305 294 291 290 294 297
7 7 10 14 18 18 14 2 355 350 348 348 347 355 355 350 345 342 338 330 318 303 311 316 317 326 327 327 326 325 326 321 318 319 313 317 320 298 294 292 294 296 291
352 353 358 9 20 21 16 10 7 2 354 349 348 348 346 343 339 337 337 334 325 314 310 314 311 319 321 318 319 316 315 313 306 312 303 305 309 310 310 313 302 298 294
0 350 356 15 29 27 25 21 15 8 4 357 350 347 342 339 337 335 335 334 330 324 320 318 320 320 313 308 311 311 312 316 312 311 318 308 299 326 327 324 290 295 293
5 0 7 30 29 20 20 17 11 8 5 360 354 349 349 346 340 337 337 335 323 321 314 312 316 317 314 312 310 302 308 311 309 319 321 316 309 329 328 320 335 320 280
Wind_Speed_850mb
10 16 20 15 17 20 18 16 27 35 25 31 20 14 10 26 31 31 29 33 28 33 28 23 28 28 29 27 25 25 29 29 30 29 28 27 25 24 26 27 29 35 39
10 19 15 16 23 25 23 14 19 22 14 19 22 27 25 12 28 40 40 27 28 40 45 43 41 41 37 34 34 34 33 32 30 29 25 24 23 23 25 26 26 28 30
13 16 22 26 28 29 29 30 29 25 28 21 20 16 20 26 21 31 42 47 48 44 47 55 42 43 43 41 40 36 35 35 31 29 26 25 24 24 25 27 26 26 29
22 24 25 29 33 31 28 25 31 34 35 36 46 49 53 56 57 56 51 42 37 39 42 44 50 51 47 46 44 45 41 41 37 36 37 37 32 29 29 30 29 29 31
29 32 34 36 39 39 36 36 33 35 40 44 45 48 54 55 59 58 58 53 51 49 46 44 45 48 50 52 53 47 46 47 46 44 43 39 40 38 34 31 31 32 35
37 38 39 42 43 46 46 44 41 36 38 43 46 51 53 55 57 59 59 58 56 53 52 50 47 45 45 48 45 47 50 50 51 49 47 45 45 43 41 37 36 41 40
44 47 48 49 51 52 53 55 57 55 47 45 49 54 57 55 54 54 48 44 43 45 36 32 30 31 30 32 35 40 43 43 41 41 41 40 41 42 39 44 47 42 45
45 47 49 50 50 50 49 49 49 49 48 43 43 43 32 39 40 39 42 33 29 32 35 36 34 31 27 26 27 31 36 40 42 42 43 54 68 62 67 66 59 71 57
39 40 42 44 44 44 44 41 37 35 36 32 27 21 16 13 30 27 36 40 35 30 29 26 25 23 24 27 29 31 34 37 38 33 36 42 48 50 55 64 59 57 53
35 34 33 33 34 35 34 33 32 30 31 30 25 16 28 27 20 29 27 26 38 46 39 25 23 26 29 33 35 37 42 46 48 51 51 51 51 46 47 49 52 51 53
28 28 27 25 26 29 27 27 27 27 30 29 26 27 22 21 24 28 26 30 33 37 34 36 31 32 32 31 32 34 37 43 47 45 38 35 40 48 51 49 46 40 47
25 24 23 23 25 24 25 28 30 30 32 33 27 18 19 22 28 30 36 35 30 27 24 25 26 26 28 31 34 39 40 40 40 33 33 38 34 36 43 49 52 50 49
25 25 24 23 23 25 27 29 27 28 31 32 32 29 21 21 23 22 20 20 15 19 16 23 27 27 31 37 44 39 35 36 37 37 36 34 36 37 41 41 42 44 45
27 23 21 20 22 21 25 23 24 25 27 28 27 27 23 20 23 23 21 16 12 13 22 20 24 26 40 54 34 25 25 25 25 27 33 42 45 45 46 43 39 35 36
26 18 14 15 18 22 22 22 23 23 25 24 23 23 23 22 20 19 17 18 13 15 19 18 29 35 29 26 21 22 23 25 26 27 27 28 29 31 35 33 34 33 30
34 31 23 19 20 22 24 25 27 28 27 28 27 26 24 24 25 23 21 18 16 17 16 25 21 21 26 22 25 25 28 31 33 33 33 32 30 27 26 28 28 26 27
39 42 39 32 28 30 34 34 34 32 28 24 24 26 27 27 25 23 23 19 17 17 20 21 21 22 24 27 26 29 34 38 39 38 36 33 30 26 23 25 27 31 33
37 40 40 40 36 33 33 37 40 39 38 37 35 33 33 31 25 24 22 20 21 22 25 30 30 33 35 31 35 36 30 35 39 36 30 26 25 27 22 18 23 28 30
32 31 30 31 29 27 27 32 35 38 43 44 44 44 44 43 41 33 24 22 22 25 29 33 33 33 33 35 39 37 40 40 35 30 25 23 22 20 19 16 20 26 30
35 36 34 28 27 28 26 24 28 23 30 33 35 36 37 39 40 37 31 22 24 27 31 33 32 33 34 37 42 48 49 45 47 30 27 22 23 23 22 21 24 28 33
33 36 38 32 28 22 25 19 22 19 22 26 28 31 32 32 29 30 30 22 26 30 32 34 36 35 40 44 46 48 49 48 46 38 32 26 22 22 23 20 28 32 35
27 32 39 36 27 26 23 16 22 24 28 30 32 32 31 30 31 31 29 29 30 32 36 39 37 41 44 45 48 50 50 51 44 38 45 37 16 17 19 28 32 41 43
25 27 34 35 25 23 21 21 24 27 29 31 33 32 35 33 35 36 34 33 33 35 35 39 40 40 48 49 53 51 47 44 44 44 41 39 22 24 30 37 46 46 38
22 24 29 31 30 26 27 26 27 28 29 32 30 34 37 38 40 44 44 42 38 29 28 36 36 39 46 47 49 50 52 50 47 42 23 33 29 33 37 47 24 16 14
19 21 25 22 25 30 30 32 34 31 29 30 31 35 38 39 41 44 49 45 32 27 31 29 30 42 44 46 48 50 45 46 44 38 30 27 27 34 43 28 15 20 21
20 21 21 17 22 27 28 29 35 39 40 42 43 41 41 44 48 49 49 41 34 28 29 39 46 48 49 54 50 40 39 40 37 30 17 31 31 35 29 22 25 11 14
Wind_Direction_850mb
306 341 347 340 320 321 339 315 287 296 268 275 266 294 294 314 320 307 304 298 270 253 262 261 273 267 268 263 258 268 276 272 265 259 258 259 256 252 255 257 255 257 256
297 291 314 291 306 315 329 321 337 341 300 287 290 298 281 318 310 318 313 298 261 251 253 265 277 264 264 261 269 275 271 264 263 264 261 256 258 260 260 258 256 258 263
317 310 300 296 294 293 297 297 289 287 289 283 296 269 265 272 262 274 283 278 274 277 263 264 263 262 262 257 265 264 258 252 250 253 254 256 255 257 264 265 263 264 265
314 308 303 305 312 315 307 296 279 281 277 270 265 266 266 266 267 271 278 282 282 278 272 263 258 258 260 257 267 261 254 250 246 248 255 257 256 257 255 257 262 265 266
311 308 308 307 306 308 306 304 294 280 275 272 268 265 264 264 269 271 273 277 279 276 274 275 275 270 267 266 272 263 257 246 244 249 256 261 261 261 260 262 265 263 265
302 299 300 300 299 298 299 298 299 297 292 284 274 267 267 269 270 273 275 275 273 273 274 277 277 277 275 270 265 258 254 253 250 250 254 260 261 260 260 257 267 279 272
303 304 302 301 300 299 297 295 293 293 292 292 291 283 276 277 279 280 286 284 283 279 276 279 289 294 288 277 265 256 252 248 243 240 246 249 261 259 255 266 271 278 271
306 306 306 309 310 309 308 306 304 299 293 294 299 302 305 292 286 275 274 271 274 284 291 295 294 288 277 264 256 249 250 249 253 255 255 261 271 264 272 258 259 263 263
315 315 316 318 321 324 327 330 328 323 317 307 291 289 306 287 297 284 292 294 300 303 305 297 279 268 266 268 266 264 259 259 259 260 268 267 262 259 259 259 256 252 249
331 331 332 332 336 342 347 352 356 356 354 350 336 294 256 281 300 299 281 290 297 301 299 274 259 267 271 273 272 271 267 263 263 263 263 262 258 258 255 255 255 252 250
342 346 349 354 357 3 11 17 18 12 6 1 346 339 325 298 289 291 298 301 294 291 285 288 289 288 284 283 279 281 288 286 285 283 277 268 263 257 250 246 243 243 252
357 356 359 1 8 17 27 27 22 17 20 18 8 347 328 320 309 305 300 301 297 291 289 291 290 289 294 297 301 303 301 293 285 279 272 274 270 264 263 254 253 254 255
359 4 7 11 16 23 21 23 18 15 13 14 19 29 17 354 323 319 320 314 315 300 298 309 308 308 315 313 313 306 300 293 282 272 259 261 265 269 266 263 259 260 262
352 350 0 9 15 13 12 15 11 3 8 8 11 15 7 15 6 3 344 346 341 330 322 305 301 305 315 314 318 319 320 313 306 296 280 270 269 269 273 275 271 267 275
347 344 357 10 9 9 9 13 10 8 4 1 1 359 355 357 352 353 342 337 319 318 312 307 308 311 321 334 339 337 329 321 312 303 293 289 284 271 269 272 271 268 269
43 50 45 33 27 33 31 30 35 35 27 30 30 28 24 20 8 360 357 349 333 328 324 327 336 325 324 326 333 329 327 324 321 317 304 295 293 290 281 275 261 266 274
49 52 48 47 52 57 58 48 37 27 21 19 22 23 18 15 13 21 26 22 15 2 354 350 343 337 337 327 324 322 316 318 317 316 313 300 288 289 289 281 266 270 267
54 55 55 59 60 57 47 38 28 30 33 35 36 30 26 21 9 6 6 1 353 348 341 333 332 329 328 321 326 329 330 329 327 320 314 306 291 286 282 284 276 266 271
52 49 44 41 37 25 21 25 29 43 46 44 41 36 33 29 25 16 4 5 1 352 342 334 329 327 337 338 331 332 332 329 328 331 315 312 308 296 292 273 259 260 271
48 41 32 25 23 23 21 27 24 33 32 29 25 20 16 14 14 15 14 10 10 5 358 354 348 344 339 335 331 329 329 329 330 330 312 308 301 289 280 279 280 282 287
36 30 24 21 23 20 23 23 13 17 12 9 4 3 358 357 353 352 356 355 345 346 350 353 353 349 346 340 338 336 331 328 327 333 325 337 300 289 268 271 278 286 294
19 22 21 18 24 25 25 21 2 355 355 355 356 358 350 346 347 345 330 322 320 323 328 327 333 336 336 333 332 332 329 330 328 330 327 328 317 305 294 291 290 294 297
7 7 10 14 18 18 14 2 355 350 348 348 347 355 355 350 345 342 338 330 318 303 311 316 317 326 327 327 326 325 326 321 318 319 313 317 320 298 294 292 294 296 291
352 353 358 9 20 21 16 10 7 2 354 349 348 348 346 343 339 337 337 334 325 314 310 314 311 319 321 318 319 316 315 313 306 312 303 305 309 310 310 313 302 298 294
0 350 356 15 29 27 25 21 15 8 4 357 350 347 342 339 337 335 335 334 330 324 320 318 320 320 313 308 311 311 312 316 312 311 318 308 299 326 327 324 290 295 293
5 0 7 30 29 20 20 17 11 8 5 360 354 349 349 346 340 337 337 335 323 321 314 312 316 317 314 312 310 302 308 311 309 319 321 316 309 329 328 320 335 320 280